DB0SVX Weather Reports


time (UTC)temp
C
wind
direction
speed
KPH
gust
KPH
rain 1hr
cm
rain 24hr
cm
rain mn
cm
humidity
%
barometer
mb
20260507044022 7 315 0.0 0.0 0.00 0.25 0.00 1010.4
20260507042522 6 202 0.0 0.0 0.00 0.25 0.00 1010.0
20260507041022 6 315 0.0 0.0 0.00 0.25 0.00 1009.9
20260507035522 6 0 0.0 0.0 0.00 0.30 0.00 1009.9
20260507034022 6 292 4.8 0.0 0.00 0.30 0.00 1009.7
20260507032522 7 315 3.2 0.0 0.00 0.30 0.00 1009.7
20260507031022 7 225 4.8 0.0 0.00 0.30 0.00 1009.7
20260507025522 7 225 4.8 0.0 0.00 0.30 0.00 1009.7
20260507024022 7 90 8.0 0.0 0.00 0.30 0.00 1009.7
20260507022522 7 270 0.0 0.0 0.00 0.30 0.00 1009.7
20260507021022 7 22 0.0 0.0 0.00 0.30 0.00 1009.5
20260507015522 7 337 0.0 0.0 0.00 0.30 0.00 1009.5
20260507014022 6 270 0.0 0.0 0.00 0.30 0.00 1009.4
20260507012522 6 202 0.0 0.0 0.00 0.30 0.00 1009.7
20260507011022 6 270 0.0 0.0 0.00 0.30 0.00 1009.7
20260507005522 6 292 0.0 0.0 0.00 0.30 0.00 1009.5
20260507004022 6 270 0.0 0.0 0.00 0.30 0.00 1009.2
20260507002522 6 0 0.0 0.0 0.00 0.30 0.00 10 1009.4
20260507001022 6 337 0.0 0.0 0.00 0.30 0.00 12 1009.2
20260506235522 6 337 0.0 0.0 0.00 0.30 0.00 15 1009.5
20260506234022 6 337 0.0 0.0 0.00 0.30 0.00 17 1009.5
20260506232522 7 337 0.0 0.0 0.00 0.30 0.00 17 1009.5
20260506231022 7 0 0.0 0.0 0.00 0.30 0.00 17 1009.2
20260506225522 7 337 0.0 0.0 0.00 0.30 0.00 19 1009.0
20260506224022 7 292 0.0 0.0 0.00 0.30 0.00 19 1009.0
20260506222522 7 0 4.8 0.0 0.00 0.30 0.00 20 1009.0
20260506221022 7 22 3.2 0.0 0.00 0.30 0.00 21 1009.0
20260506215522 8 337 0.0 0.0 0.00 0.30 0.00 22 1009.0
20260506214022 8 337 0.0 0.0 0.00 0.30 0.00 22 1009.0
20260506212522 8 22 0.0 0.0 0.00 0.30 0.00 22 1009.0
20260506211022 8 292 22.5 0.0 0.00 0.30 0.00 23 1008.9
20260506205522 8 0 0.0 0.0 0.00 0.30 0.00 24 1008.7
20260506204022 8 0 3.2 0.0 0.00 0.30 0.00 25 1008.7
20260506202522 8 45 4.8 0.0 0.00 0.30 0.00 25 1008.5
20260506201021 8 292 6.4 0.0 0.00 0.30 0.00 27 1008.5
20260506195521 8 337 1.6 0.0 0.00 0.30 0.00 28 1008.5
20260506194021 8 270 0.0 0.0 0.00 0.30 0.00 29 1008.5
20260506192522 8 0 4.8 0.0 0.00 0.30 0.00 30 1008.4
20260506191021 8 247 1.6 0.0 0.00 0.30 0.00 33 1008.0
20260506185521 8 22 6.4 0.0 0.00 0.41 0.00 37 1007.9
20260506184021 8 292 9.7 0.0 0.00 0.41 0.00 38 1007.7
20260506182521 10 292 0.0 0.0 0.00 0.41 0.00 41 1007.5
20260506181021 10 112 0.0 0.0 0.00 0.41 0.00 42 1007.2
20260506175521 10 22 0.0 0.0 0.00 0.41 0.00 44 1007.2
20260506174021 12 315 4.8 0.0 0.00 0.41 0.00 44 1007.0
20260506172521 13 337 3.2 0.0 0.00 0.41 0.00 43 1007.0
20260506171021 12 337 4.8 0.0 0.00 0.41 0.00 40 1006.9
20260506165521 11 202 4.8 0.0 0.00 0.41 0.00 42 1006.7
20260506164021 10 0 8.0 0.0 0.00 0.41 0.00 42 1006.4
20260506162521 11 0 1.6 0.0 0.00 0.41 0.00 43 1006.7
20260506161021 11 225 4.8 0.0 0.00 0.41 0.00 44 1006.7
20260506155521 12 22 19.3 0.0 0.15 0.41 0.00 43 1006.5
20260506154021 11 292 14.5 0.0 0.15 0.41 0.00 41 1006.2
20260506152521 11 22 3.2 0.0 0.15 0.41 0.00 41 1006.2
20260506151021 12 337 3.2 0.0 0.15 0.41 0.00 46 1005.9
20260506145521 18 315 9.7 0.0 0.00 0.25 0.00 40 1005.2
20260506144023 26 202 0.0 0.0 0.05 0.25 0.00 33 1004.2
20260506142521 25 225 3.2 0.0 0.05 0.25 0.00 35 1004.2
20260506141021 21 180 0.0 0.0 0.10 0.25 0.00 38 1004.4
20260506135521 15 135 0.0 0.0 0.10 0.25 0.00 38 1004.2
20260506134021 14 112 8.0 0.0 0.05 0.20 0.00 43 1004.2
20260506132521 16 157 0.0 0.0 0.00 0.15 0.00 45 1004.9
20260506131021 17 112 0.0 0.0 0.00 0.15 0.00 43 1005.0
20260506125521 19 45 0.0 0.0 0.00 0.15 0.00 40 1004.7
20260506124021 21 22 0.0 0.0 0.00 0.15 0.00 37 1004.2
20260506122521 22 45 3.2 0.0 0.00 0.15 0.00 36 1004.0
20260506121021 21 90 0.0 0.0 0.00 0.15 0.00 38 1004.2
20260506115521 21 112 9.7 0.0 0.00 0.15 0.00 37 1004.2
20260506114021 22 247 6.4 0.0 0.00 0.15 0.00 35 1004.4
20260506112522 22 67 0.0 0.0 0.00 0.15 0.00 35 1004.4
20260506111021 23 135 4.8 0.0 0.00 0.15 0.00 33 1004.7
20260506105521 24 157 8.0 0.0 0.00 0.15 0.00 33 1004.9
20260506104021 23 67 0.0 0.0 0.00 0.15 0.00 34 1005.0
20260506102522 20 112 1.6 0.0 0.00 0.15 0.00 38 1004.7
20260506101021 18 135 0.0 0.0 0.00 0.15 0.00 40 1005.0
20260506095521 18 112 6.4 0.0 0.00 0.15 0.00 39 1005.2
20260506094021 19 22 6.4 0.0 0.00 0.15 0.00 38 1005.5
20260506092521 21 337 0.0 0.0 0.00 0.15 0.00 36 1005.2
20260506091021 21 135 0.0 0.0 0.00 0.15 0.00 35 1005.2
20260506085521 20 112 0.0 0.0 0.00 0.15 0.00 35 1005.4
20260506084022 20 112 0.0 0.0 0.00 0.15 0.00 33 1005.0
20260506082521 16 247 0.0 0.0 0.00 0.15 0.00 34 1005.4
20260506081021 15 247 0.0 0.0 0.00 0.15 0.00 33 1005.4
20260506072521 15 247 0.0 0.0 0.00 0.15 0.00 26 1005.2
20260506071021 14 247 0.0 0.0 0.00 0.15 0.00 24 1005.5
20260506061021 11 247 0.0 0.0 0.00 0.15 0.00 1005.4
20260506051021 8 247 0.0 0.0 0.05 0.15 0.00 1005.9